Printer-friendly version

IAU Minor Planet Center

Minor Planet Center

MPEC 2000-E45: 2000 EK26

The following Minor Planet Electronic Circular may be linked-to from your own Web pages, but must not otherwise be redistributed electronically.


Read MPEC 2000-E44 Read MPEC 2000-E46


M.P.E.C. 2000-E45                                Issued 2000 Mar. 10, 17:55 UT

     The Minor Planet Electronic Circulars contain information on unusual
         minor planets and routine data on comets.  They are published
   on behalf of Commission 20 of the International Astronomical Union by the
          Minor Planet Center, Smithsonian Astrophysical Observatory,
                          Cambridge, MA 02138, U.S.A.

             Prepared using the Tamkin Foundation Computer Network

             BMARSDEN@CFA.HARVARD.EDU or GWILLIAMS@CFA.HARVARD.EDU
          URL http://cfa-www.harvard.edu/iau/mpc.html  ISSN 1523-6714

                                   2000 EK26

Observations:
     K00E26K* C2000 03 04.37375 13 19 09.15 +21 57 23.7          19.4        704
     K00E26K  C2000 03 04.38693 13 19 07.63 +21 57 41.3          19.9        704
     K00E26K  C2000 03 04.40011 13 19 06.24 +21 57 57.0          19.7        704
     K00E26K  C2000 03 04.41329 13 19 04.74 +21 58 14.0          19.5        704
     K00E26K  C2000 03 04.42647 13 19 03.39 +21 58 29.2          19.1        704
     K00E26K  C2000 03 05.17891 13 17 44.17 +22 13 48.7                      557
     K00E26K  C2000 03 05.18152 13 17 43.84 +22 13 51.2                      557
     K00E26K  C2000 03 05.29798 13 17 32.40 +22 16 16.2          19.2        704
     K00E26K  C2000 03 05.31119 13 17 30.99 +22 16 31.7          19.5        704
     K00E26K  C2000 03 05.32440 13 17 29.49 +22 16 49.3          19.9        704
     K00E26K  C2000 03 05.33763 13 17 28.08 +22 17 04.1          19.7        704
     K00E26K  C2000 03 05.35086 13 17 26.59 +22 17 20.7          19.2        704
     K00E26K  C2000 03 07.04728 13 14 25.24 +22 50 23.5                      046
     K00E26K  C2000 03 07.04927 13 14 24.99 +22 50 23.5                      046
     K00E26K  C2000 03 07.05027 13 14 24.89 +22 50 26.3                      046
     K00E26K  C2000 03 07.05198 13 14 24.81 +22 50 28.8                      046
     K00E26K  C2000 03 07.05356 13 14 24.44 +22 50 29.0          18.5 R      046
     K00E26K  C2000 03 07.12068 13 14 17.03 +22 51 44.9          19.4 V      557
     K00E26K  C2000 03 07.12329 13 14 16.78 +22 51 47.0                      557
     K00E26K  C2000 03 08.35639 13 12 03.50 +23 14 32.6          19.3        704
     K00E26K  C2000 03 08.37019 13 12 01.86 +23 14 48.0          19.7        704
     K00E26K  C2000 03 08.38370 13 12 00.38 +23 15 04.1          19.8        704

Observer details:
046 Klet.  Observers M. Tichy, Z. Moravec.  0.57-m f/5.2 reflector + CCD.
557 Ondrejov.  Observers P. Pravec, P. Kusnirak.  0.65-m f/3.6 reflector + CCD.
704 Lincoln Laboratory ETS, New Mexico.  Observers M. Blythe, F. Shelly,
    M. Bezpalko, M. Elowitz, R. Huber.  Measurers J. Stuart, H. Viggh,
    R. Sayer, J. B. Evans.  1.0-m f/2.15 reflector + CCD.

Orbital elements:
2000 EK26                                                            PHA 0.011
Epoch 2000 Feb. 26.0 TT = JDT 2451600.5                 Williams
M  23.59688              (2000.0)            P               Q
n   0.25455586     Peri.  305.12731     +0.28088549     -0.93491807
a   2.4657402      Node   127.08696     +0.94503337     +0.23001939
e   0.6688034      Incl.   15.77491     +0.16737763     +0.27022080
P   3.87           H   18.1           G   0.15
From 22 observations 2000 Mar. 4-8.

Ephemeris:
2000 EK26                a,e,i = 2.47, 0.67, 16                  q = 0.8166
Date    TT    R. A. (2000) Decl.     Delta      r     Elong.  Phase     V
2000 03 07    13 14.51   +22 49.6    0.697    1.616   145.4    20.4    19.4
2000 03 12    13 05.37   +24 15.2    0.732    1.664   148.8    18.0    19.5
2000 03 17    12 56.18   +25 22.0    0.772    1.711   150.9    16.5    19.6
2000 03 22    12 47.27   +26 10.1    0.817    1.757   151.4    15.8    19.7
2000 03 27    12 38.93   +26 40.5    0.867    1.804   150.5    15.8    19.9
2000 04 01    12 31.37   +26 54.6    0.922    1.849   148.4    16.5    20.1
2000 04 06    12 24.77   +26 54.4    0.983    1.894   145.5    17.4    20.4
2000 04 11    12 19.21   +26 42.1    1.048    1.939   142.1    18.5    20.6
2000 04 16    12 14.73   +26 19.6    1.117    1.983   138.3    19.7    20.8
2000 04 21    12 11.29   +25 49.1    1.191    2.026   134.5    20.7    21.0
2000 04 26    12 08.84   +25 12.1    1.268    2.068   130.5    21.7    21.2
2000 05 01    12 07.31   +24 30.1    1.348    2.111   126.6    22.5    21.4
2000 05 06    12 06.62   +23 44.1    1.432    2.152   122.7    23.2    21.6
2000 05 11    12 06.70   +22 55.1    1.518    2.193   118.9    23.8    21.8
2000 05 16    12 07.47   +22 03.9    1.607    2.233   115.2    24.2    22.0

Gareth V. Williams           (C) Copyright 2000 MPC           M.P.E.C. 2000-E45

Read MPEC 2000-E44 Read MPEC 2000-E46


Our Web policy. Index to the CBAT/MPC/ICQ pages.


Valid HTML 4.01!